Flag for Germany Weather past 2 weeks in Neubrandenburg, Mecklenburg-Western Pomerania, Germany

Now
77 °F

Overcast.


Feels Like: 78 °F
Forecast: 69 / 96 °F
Wind: 6 mph from Southwest

Location: Greifswald

Current Time: Jul 5, 2015 at 1:15:54 AM

Latest Report: Jul 5, 2015 at 1:00 AM


Visibility: 11 mi

Pressure: 30.07 "Hg

Humidity: 67%

Dew point: 65 °F

Location of NeubrandenburgLocation

Historic Weather in Neubrandenburg — Graph

°F

Neubrandenburg temperature yesterday

Maximum temperature yesterday: 91 °F (at 4:00 PM)
Minimum temperature yesterday: 61 °F (at 4:00 AM)
Average temperature yesterday: 77 °F

Past Weeks' High & Low Weather Summary

 TemperatureHumidityPressure
High91 °F (Jul 4, 4:00 PM)99% (Jun 26, 3:00 AM)30.35 "Hg (Jun 26, 3:00 AM)
Low51 °F (Jun 22, 4:00 AM)36% (Jul 3, 4:00 PM)29.61 "Hg (Jun 23, 4:00 AM)
Average62 °F75%30.06 "Hg
* Reported Jun 19 10:00 PM — Jul 4 10:00 PM, Neubrandenburg, Weather by CustomWeather, © 2015

Note: Actual official high and low records may vary slightly from our data, if they occured in-between our weather recording intervals... More about our weather records

Advertising

Neubrandenburg weather history for previous 24 hours

 ConditionsComfort  
Time TempWeatherWind HumidityBarometerVisibility
10:00 PM
Sat, Jul 4
76 °FPassing clouds.1 mph73%30.06 "Hg14 mi
9:00 PM80 °FPartly sunny.1 mph69%30.05 "Hg14 mi
8:00 PM83 °FPartly sunny.5 mph57%30.05 "Hg19 mi
7:00 PM86 °FScattered clouds.5 mph50%30.06 "Hg19 mi
6:00 PM90 °FPartly sunny.6 mph43%30.08 "Hg19 mi
4:00 PM91 °FPartly sunny.6 mph36%30.11 "Hg19 mi
3:00 PM91 °FPartly sunny.3 mph37%30.12 "Hg19 mi
2:00 PM90 °FSunny.3 mph37%30.14 "Hg22 mi
1:00 PM89 °FPassing clouds.3 mph36%30.14 "Hg17 mi
12:00 PM84 °FPassing clouds.3 mph48%30.16 "Hg19 mi
11:00 AM84 °FSunny.3 mph49%30.17 "Hg19 mi
10:00 AM82 °FSunny.2 mph48%30.17 "Hg22 mi
9:00 AM78 °FSunny.2 mph58%30.18 "Hg17 mi
8:00 AM72 °FPassing clouds.1 mph67%30.19 "Hg14 mi
7:00 AM65 °FPassing clouds.2 mph85%30.19 "Hg10 mi
6:00 AM61 °FFog.1 mph99%30.20 "Hg4 mi
4:00 AM61 °FFog.No wind98%30.21 "Hg4 mi
3:00 AM62 °FFog.1 mph98%30.22 "Hg4 mi
2:00 AM63 °FClear.1 mph97%30.23 "Hg5 mi
1:00 AM64 °FClear.1 mph97%30.24 "Hg5 mi
Weather by CustomWeather, © 2015

See weather overviewHow to use our weather pages